{"data":{"norad_id":64521,"epoch":"2026-05-25T00:16:29.192736Z","epoch_age_seconds":74726,"freshness":"FRESH","line1":"1 64521U 25134X   26145.01144899  .00003235  00000+0  45394-3 0  9997","line2":"2 64521  51.9004 250.5976 0000240 123.7144 236.3842 14.79852060 51434","mean_motion":14.7985206,"eccentricity":2.4e-5,"inclination_deg":51.9004,"raan_deg":250.5976,"arg_perigee_deg":123.7144,"mean_anomaly_deg":236.3842,"bstar":0.00045394,"rev_number":5143,"period_min":97.307024054823,"perigee_km":629.62295806813,"apogee_km":629.95933861925,"semimajor_km":7007.9281483437,"source":"CELESTRAK","updated_at":"2026-05-25T13:38:04.577433Z"}}